[Date Prev][Date Next][Thread Prev][Thread Next] - [Date Index][Thread Index][Author Index]

2 Line ISS Keps 1-6



ISS
1 25544U 98067A   04006.21017727  .00016995  00000-0  16507-3 0  9742
2 25544  51.6294  74.9947 0006789 348.0459  53.1962 15.66423949292752


----
Via the sarex mailing list at AMSAT.ORG courtesy of AMSAT-NA.
To unsubscribe, send "unsubscribe sarex" to Majordomo@amsat.org



AMSAT Top AMSAT Home